This demonstration page uses our WeatherBlox Daily Observations layout. Learn more.

Left ArrowRight Arrow

Hourly Observations for February 18, 2015

Temp ( °F °C ) Dew Point ( °F °C ) Humidity (%) Winds ( mph kmh ) Pressure ( in mb ) Visibility ( mi km ) Precip ( " mm )
12:51 am 00:51 Clear 45 7.2 18 -7.8 34 34 SE 6 9 30.08 1019 10 16 0.00 0.00
1:51 am 01:51 Clear 43 6.1 18 -7.8 37 37 Calm 30.08 1019 10 16 0.00 0.00
2:51 am 02:51 Clear 41 5 18 -7.8 39 39 E 3 6 30.08 1019 10 16 0.00 0.00
3:51 am 03:51 Clear 41 5 19 -7.2 41 41 ESE 6 9 30.09 1019 10 16 0.00 0.00
4:51 am 04:51 Clear 38 3.3 20 -6.7 48 48 ENE 3 6 30.11 1020 10 16 0.00 0.00
5:51 am 05:51 Clear 36 2.2 20 -6.7 52 52 Calm 30.14 1021 10 16 0.00 0.00
6:51 am 06:51 Clear 35 1.7 21 -6.1 57 57 S 5 7 30.16 1021 10 16 0.00 0.00
7:51 am 07:51 Sunny 43 6.1 22 -5.6 43 43 Calm 30.17 1022 10 16 0.00 0.00
8:51 am 08:51 Sunny 49 9.4 19 -7.2 31 31 Calm 30.20 1023 10 16 0.00 0.00
9:51 am 09:51 Sunny 54 12.2 18 -7.8 24 24 Calm 30.19 1023 10 16 0.00 0.00
10:51 am 10:51 Sunny 57 13.9 17 -8.3 21 21 Calm 30.17 1022 10 16 0.00 0.00
11:51 am 11:51 Sunny 61 16.1 17 -8.3 18 18 SW 3 6 30.13 1020 10 16 0.00 0.00
12:51 pm 12:51 Sunny 65 18.3 16 -8.9 15 15 Calm 30.09 1019 10 16 0.00 0.00
1:51 pm 13:51 Sunny 70 21.1 16 -8.9 12 12 W 9 15 30.04 1017 10 16 0.00 0.00
2:51 pm 14:51 Sunny 71 21.7 14 -10 11 11 VRB 6 9 30.01 1016 10 16 0.00 0.00
3:51 pm 15:51 Sunny 72 22.2 10 -12.2 9 9 WNW 3 6 29.97 1015 10 16 0.00 0.00
4:51 pm 16:51 Sunny 71 21.7 13 -10.6 10 10 WNW 3 6 29.98 1015 10 16 0.00 0.00
5:51 pm 17:51 Sunny 66 18.9 21 -6.1 18 18 W 6 9 30.02 1017 10 16 0.00 0.00
6:51 pm 18:51 Clear 60 15.6 24 -4.4 25 25 WNW 6 9 30.06 1018 10 16 0.00 0.00
7:51 pm 19:51 Clear 59 15 23 -5 25 25 W 3 6 30.06 1018 10 16 0.00 0.00
8:51 pm 20:51 Clear 53 11.7 25 -3.9 34 34 ENE 5 7 30.09 1019 10 16 0.00 0.00
9:51 pm 21:51 Clear 53 11.7 24 -4.4 32 32 E 3 6 30.09 1019 10 16 0.00 0.00
10:51 pm 22:51 Clear 49 9.4 24 -4.4 38 38 Calm 30.09 1019 10 16 0.00 0.00
11:51 pm 23:51 Clear 46 7.8 25 -3.9 44 44 E 3 6 30.09 1019 10 16 0.00 0.00

Powered by AerisWeather